Regional Weather Roundup
Issued by NWS

Home | Current Version | Previous Version | Graphics & Text | Print | Product List | Glossary On
Versions: 1 2 3 4 5 6 7 8 9 10 11 12 13 14 15 16 17 18 19 20 21 22 23 24 25 26 27 28 29 30 31 32 33 34 35 36 37 38 39 40 41 42 43 44 45 46 47
000
ASUS45 KBOU 250210
RWRCO

WEATHER ROUNDUP FOR COLORADO
NATIONAL WEATHER SERVICE PUEBLO CO
700 PM MST SAT FEB 24 2018

NOTE: "FAIR" INDICATES FEW OR NO CLOUDS BELOW 12000 FEET WITH NO
SIGNIFICANT WEATHER AND/OR OBSTRUCTIONS TO VISIBILITY.

COZ001>005-013-030-031-250300-
...NORTHWEST COLORADO...

CITY           SKY/WX    TMP DP  RH WIND       PRES   REMARKS
CRAIG          LGT SNOW  20  13  74 W7        29.90R WCI  11
HAYDEN         NOT AVBL
MEEKER         CLOUDY    22   8  55 S9        29.87R WCI  12
RABBIT EARS PA NOT AVBL
STEAMBOAT SPGS CLOUDY    15   4  62 CALM      29.86R
WALDEN         CLOUDY    12  -2  52 SW14      29.79R WCI  -3
$$

COZ006>008-011-250300-
...WEST CENTRAL VALLEYS...

CITY           SKY/WX    TMP DP  RH WIND       PRES   REMARKS
GRAND JUNCTION CLOUDY    31  12  45 NW3       29.94R
MONTROSE       CLOUDY    28   8  43 N5        29.94S WCI  23
EAGLE          CLOUDY    21  10  62 S9        29.90R WCI  11
RIFLE          CLOUDY    24  10  55 S6        29.92S WCI  17
DELTA          NOT AVBL
NUCLA          CLOUDY    28  10  47 S9        29.97S WCI  20
$$

COZ017>023-064>068-250300-
...SOUTHWEST COLORADO...

CITY           SKY/WX    TMP DP  RH WIND       PRES   REMARKS
DURANGO        MOCLDY    26   5  40 W6        29.94S WCI  19
CORTEZ         CLOUDY    28   8  43 E6        29.96R WCI  22
PAGOSA SPRINGS FAIR      22  -1  37 S6        29.95R WCI  14
TELLURIDE      CLOUDY    18  -2  40 W5        29.86R WCI  11
WOLF CREEK PAS   N/A      1   0  92 S36G46    29.79S WCI -26
$$

COZ009-010-012-014-032>034-037-058>063-250300-
...CENTRAL COLORADO...

CITY           SKY/WX    TMP DP  RH WIND       PRES   REMARKS
ASPEN          MOCLDY    10   2  69 S6        29.84R WCI   0
BUENA VISTA    FAIR      21  -5  31 W14G21    29.81S WCI   8
COPPER MTN     CLOUDY     5  -4  66 S9        29.68R WCI  -9
BERTHOUD PASS  CLOUDY    -6 -17  59 MISG      29.60F
COTTONWOOD PAS CLOUDY    19   0  42 NW10      29.76S WCI   8
GUNNISON       CLOUDY    20   2  45 N9        29.86S WCI   9
KREMMLING      MOCLDY    21   1  42 W3        29.84R
LEADVILLE      MOCLDY     5  -4  66 CALM      29.73S
MONARCH PASS   CLOUDY     1  -6  71 SW25G31   29.81R WCI -22
SALIDA         FAIR      24  -4  29 SW15G21   29.91S WCI  12
SUNLIGHT       LGT SNOW   3   0  85 SW16G25   29.77R WCI -16
WILKERSON PASS CLEAR      5  -9  51 SW18G30   29.69F WCI -15
$$

COZ069>075-250300-
...SAN LUIS VALLEY/SANGRE DE CRISTO MOUNTAINS...

CITY           SKY/WX    TMP DP  RH WIND       PRES   REMARKS
ALAMOSA        CLEAR     21  -3  35 SW12      29.86R WCI   9
DEL NORTE      FAIR      22   1  39 SW15      29.86R WCI   8
LA VETA PASS   CLEAR     14  -2  48 S26G44    29.85R WCI  -6
SAGUACHE       PTCLDY    19   0  42 NW8       29.86R WCI   9
$$

COZ035-036-038>040-250300-
...NORTHERN COLORADO FRONT RANGE...

CITY           SKY/WX    TMP DP  RH WIND       PRES   REMARKS
DENVER INTL AP PTCLDY    29   1  30 NW14      29.77R WCI  18
DMNS CITY PARK NOT AVBL
AURORA         PTCLDY    26   1  34 N10       29.78R WCI  15
FRONT RANGE AP PTCLDY    30   5  34 NW8G16    29.79R WCI  23
ERIE MUNI ARPT FAIR      27  -1  29 NW7       29.83S WCI  19
BOULDER MUN AP FAIR      30   0  27 SE5       29.76S WCI  25
CENTENNIAL     PTCLDY    26   4  38 E8        29.77R WCI  18
BROOMFIELD     PTCLDY    28   1  31 W15G23    29.76R WCI  17
LOVELAND       PTCLDY    27   4  37 VRB3      29.78R
LONGMONT       FAIR      28   2  32 CALM      29.79F
$$

COZ041-046-047-076>085-087-088-250300-
...PIKES PEAK/PALMER DIVIDE AND SOUTHERN FOOTHILLS...

CITY           SKY/WX    TMP DP  RH WIND       PRES   REMARKS
COLO. SPRINGS  PTCLDY    31  -3  23 NW12      29.76R WCI  22
A. F. ACADEMY  CLEAR     28  -5  23 NE12      29.76R WCI  18
SCHRIEVER AFB  NOT AVBL
CHEYENNE MTN   NOT AVBL
ELLICOTT         N/A    N/A N/A N/A NE6       29.77R
FALCON         FAIR      25  -7  24 N7        29.77S WCI  18
FORT CARSON    CLEAR     33  -3  21 E7        29.76R WCI  26
LIMON          CLEAR     17   7  64 NE7       29.81R WCI   8
MONUMENT HILL  CLEAR     19   5  53 E7        29.77S WCI  10
CANON CITY     CLEAR     36  -4  18 NW8       29.77R
WALSENBURG     FAIR      28  -6  22 SW7       29.80R WCI  21
TRINIDAD       CLEAR     34  -4  19 W13       29.80R WCI  25
$$

COZ042>045-048>051-090-091-250300-
...NORTHEAST COLORADO...

CITY           SKY/WX    TMP DP  RH WIND       PRES   REMARKS
GREELEY ARPT   PTCLDY    26  11  52 NE7       29.80R WCI  18
AKRON          PTCLDY    23   8  52 N10       29.80R WCI  12
BURLINGTON     CLEAR     27  10  49 N8        29.84R WCI  19
WRAY           FAIR      30  12  47 N13       29.83R WCI  20
YUMA           NOT AVBL
STERLING       FAIR      27   9  46 NW8       29.82R WCI  18
HOLYOKE        FAIR      32  14  47 NW9       29.83S WCI  24
FORT MORGAN    FAIR      25   3  39 N12       29.81S WCI  14
$$

COZ086-089-092>099-250300-
...SOUTHEAST COLORADO...

CITY           SKY/WX    TMP DP  RH WIND       PRES   REMARKS
PUEBLO         CLEAR     30  -3  24 S5        29.79R WCI  25
LA JUNTA       CLEAR     42  -3  15 SW3       29.80R
LAMAR          CLEAR     22   2  42 S7        29.80R WCI  13
SPRINGFIELD      N/A     24  -3  30 SW6       29.82R WCI  17
$$





USA.gov is the U.S. government's official web portal to all federal, state and local government web resources and services.